This is the latest recevied weather packets stored in our database for station/object K3RUP-1. If no packets are shown the sender has not sent any weather packets the latest 10 day(s).
| Time | Temp. | Humidity | Pressure | Rain* | Wind** | Luminosity | Snow |
|---|---|---|---|---|---|---|---|
| 1788555526 | 29.44° C | 72% | 1011.5 hPa | 0 mm | - | 62 W/m² | - |
| 1788555221 | 29.44° C | 70% | 1011.3 hPa | 0 mm | - | 51 W/m² | - |
| 1788554918 | 30° C | 72% | 1011.4 hPa | 0 mm | - | 59 W/m² | - |
| 1788554614 | 30° C | 67% | 1011.6 hPa | 0 mm | - | 78 W/m² | - |
| 1788554310 | 30.56° C | 71% | 1011.8 hPa | 0 mm | - | 89 W/m² | - |
| 1788554006 | 30.56° C | 65% | 1011.8 hPa | 0 mm | - | 61 W/m² | - |
| 1788553701 | 30.56° C | 65% | 1011.9 hPa | 0 mm | - | 49 W/m² | - |
| 1788553398 | 30.56° C | 65% | 1011.6 hPa | 0 mm | - | 58 W/m² | - |
| 1788553093 | 31.11° C | 63% | 1011.6 hPa | 0 mm | - | 88 W/m² | - |
| 1788552787 | 31.11° C | 64% | 1011.4 hPa | 0 mm | - | 122 W/m² | - |
| 1788552483 | 31.67° C | 61% | 1011.1 hPa | 0 mm | - | 149 W/m² | - |
| 1788552182 | 31.11° C | 62% | 1011.1 hPa | 0 mm | - | 180 W/m² | - |
| 1788551881 | 31.11° C | 62% | 1011.2 hPa | 0 mm | - | 155 W/m² | - |
| 1788551580 | 31.11° C | 63% | 1011.6 hPa | 0 mm | - | 142 W/m² | - |
| 1788551275 | 31.11° C | 63% | 1011.5 hPa | 0 mm | - | 142 W/m² | - |
| 1788550974 | 31.11° C | 62% | 1011.5 hPa | 0 mm | - | 159 W/m² | - |
| 1788550670 | 31.11° C | 64% | 1011.5 hPa | 0 mm | - | 137 W/m² | - |
| 1788550365 | 31.11° C | 64% | 1011.3 hPa | 0 mm | - | 139 W/m² | - |
| 1788550060 | 31.67° C | 60% | 1011.6 hPa | 0 mm | - | 140 W/m² | - |
| 1788549755 | 31.67° C | 61% | 1011.5 hPa | 0 mm | - | 255 W/m² | - |
| 1788549452 | 31.67° C | 60% | 1011.7 hPa | 0 mm | - | 333 W/m² | - |
| 1788549148 | 31.67° C | 62% | 1011.7 hPa | 0 mm | - | 335 W/m² | - |
| 1788548839 | 32.22° C | 58% | 1011.9 hPa | 0 mm | - | 336 W/m² | - |
| 1788548534 | 32.78° C | 58% | 1011.8 hPa | 0 mm | - | 511 W/m² | - |
| 1788548231 | 32.22° C | 57% | 1011.8 hPa | 0 mm | - | 540 W/m² | - |
* Rain latest hour (hover to see other rain measurements)
** Current wind speed in m/s (hover to see current wind gust speed)